レモン-パンスターズ彗星

457P/Lemmon-PanSTARRS (2016)

English version
Home page
Updated on April 22, 2023

---------------------------------------------------------------------

・ プロフィール

符号 457P/2016 N7

・ 軌道要素

                    Epoch = 2016 Jan. 13.0 TT
     T = 2016 Jan. 15.33940 TT        Peri. = 105.08460
     e = 0.1185305                    Node  = 176.05154 2000.0
     q = 2.3317835 AU                 Incl. =   5.22248
       a =  2.6453367 AU   n = 0.22907761   P =   4.30 years

・ 光度変化

        m1 = 15.5 + 5 logΔ + 10.0 log r

---------------------------------------------------------------------

軌道要素は、CBET 5235に掲載されたものです。
光度グラフはComet for Windowsで作成したものです。

---------------------------------------------------------------------

Copyright(C) Seiichi Yoshida (comet@aerith.net). All rights reserved.